• In Deutschland
  • Länderverzeichnis
  • Für 7 Tage
  • Wassertemperatur
  • Satellitenkarten
  • Wetterkarte
  • Widgets
  • user-avatar
    Anmelden

    Stündliche Wetter Asadabad

    Heute, 18 November, Samstag

    Zeit Temperatur Niederschläge Wind Luftdruck Luftfeuchtigkeit
    00:00 +7°C° 0 mm 2 m/S 658 mmHg 37%
    01:00 +7°C° 0 mm 2 m/S 658 mmHg 36%
    02:00 +7°C° 0 mm 2 m/S 658 mmHg 35%
    03:00 +6°C° 0 mm 2 m/S 658 mmHg 34%
    04:00 +6°C° 0 mm 2 m/S 658 mmHg 34%
    05:00 +6°C° 0 mm 2 m/S 658 mmHg 33%
    06:00 +7°C° 0 mm 2 m/S 658 mmHg 32%
    07:00 +7°C° 0 mm 2 m/S 659 mmHg 30%
    08:00 +8°C° 0 mm 2 m/S 659 mmHg 29%
    09:00 +9°C° 0 mm 2 m/S 660 mmHg 26%
    10:00 +12°C° 0 mm 2 m/S 660 mmHg 23%
    11:00 +14°C° 0 mm 2 m/S 660 mmHg 20%
    12:00 +14°C° 0 mm 2 m/S 660 mmHg 20%
    13:00 +14°C° 0 mm 2 m/S 660 mmHg 20%
    14:00 +14°C° 0 mm 3 m/S 660 mmHg 20%
    15:00 +14°C° 0 mm 2 m/S 659 mmHg 23%
    16:00 +12°C° 0 mm 2 m/S 659 mmHg 26%
    17:00 +11°C° 0 mm 1 m/S 659 mmHg 29%
    18:00 +9°C° 0 mm 2 m/S 659 mmHg 30%
    19:00 +9°C° 0 mm 2 m/S 659 mmHg 30%
    20:00 +8°C° 0 mm 2 m/S 659 mmHg 30%
    21:00 +8°C° 0 mm 2 m/S 659 mmHg 29%
    22:00 +7°C° 0 mm 2 m/S 660 mmHg 29%
    23:00 +7°C° 0 mm 2 m/S 660 mmHg 28%

    Morgen, 19 November, Sonntag

    Zeit Temperatur Niederschläge Wind Luftdruck Luftfeuchtigkeit
    00:00 +7°C° 0 mm 2 m/S 660 mmHg 28%
    01:00 +6°C° 0 mm 2 m/S 659 mmHg 28%
    02:00 +6°C° 0 mm 2 m/S 659 mmHg 28%
    03:00 +6°C° 0 mm 2 m/S 659 mmHg 28%
    04:00 +6°C° 0 mm 2 m/S 659 mmHg 28%
    05:00 +6°C° 0 mm 2 m/S 659 mmHg 28%
    06:00 +6°C° 0 mm 2 m/S 659 mmHg 27%
    07:00 +7°C° 0 mm 2 m/S 660 mmHg 26%
    08:00 +8°C° 0 mm 2 m/S 660 mmHg 25%
    09:00 +10°C° 0 mm 2 m/S 660 mmHg 21%
    10:00 +12°C° 0 mm 2 m/S 661 mmHg 18%
    11:00 +14°C° 0 mm 1 m/S 661 mmHg 15%
    12:00 +15°C° 0 mm 2 m/S 661 mmHg 15%
    13:00 +15°C° 0 mm 2 m/S 660 mmHg 15%
    14:00 +16°C° 0 mm 2 m/S 660 mmHg 15%
    15:00 +14°C° 0 mm 2 m/S 660 mmHg 19%
    16:00 +12°C° 0 mm 1 m/S 659 mmHg 22%
    17:00 +11°C° 0 mm 1 m/S 659 mmHg 26%
    18:00 +10°C° 0 mm 1 m/S 659 mmHg 25%
    19:00 +9°C° 0 mm 2 m/S 659 mmHg 24%
    20:00 +8°C° 0 mm 2 m/S 659 mmHg 23%
    21:00 +8°C° 0 mm 2 m/S 659 mmHg 22%
    22:00 +8°C° 0 mm 2 m/S 659 mmHg 21%
    23:00 +7°C° 0 mm 2 m/S 659 mmHg 20%

    übermorgen, 20 November, Montag

    Zeit Temperatur Niederschläge Wind Luftdruck Luftfeuchtigkeit
    00:00 +7°C° 0 mm 2 m/S 659 mmHg 20%
    01:00 +7°C° 0 mm 2 m/S 659 mmHg 19%
    02:00 +7°C° 0 mm 3 m/S 659 mmHg 19%
    03:00 +5°C° 0 mm 3 m/S 658 mmHg 18%
    04:00 +5°C° 0 mm 3 m/S 658 mmHg 18%
    05:00 +5°C° 0 mm 3 m/S 658 mmHg 18%
    06:00 +5°C° 0 mm 3 m/S 658 mmHg 17%
    07:00 +7°C° 0 mm 3 m/S 659 mmHg 17%
    08:00 +8°C° 0 mm 3 m/S 659 mmHg 16%
    09:00 +10°C° 0 mm 2 m/S 660 mmHg 14%
    10:00 +13°C° 0 mm 2 m/S 660 mmHg 11%
    11:00 +15°C° 0 mm 1 m/S 661 mmHg 9%
    12:00 +15°C° 0 mm 1 m/S 660 mmHg 9%
    13:00 +16°C° 0 mm 2 m/S 660 mmHg 10%
    14:00 +16°C° 0 mm 2 m/S 660 mmHg 10%
    15:00 +14°C° 0 mm 1 m/S 659 mmHg 14%
    16:00 +13°C° 0 mm 1 m/S 659 mmHg 17%
    17:00 +11°C° 0 mm 1 m/S 658 mmHg 21%
    18:00 +10°C° 0 mm 1 m/S 658 mmHg 20%
    19:00 +9°C° 0 mm 2 m/S 659 mmHg 18%
    20:00 +8°C° 0 mm 2 m/S 659 mmHg 17%
    21:00 +8°C° 0 mm 2 m/S 659 mmHg 17%
    22:00 +8°C° 0 mm 2 m/S 659 mmHg 16%
    23:00 +7°C° 0 mm 2 m/S 659 mmHg 16%

    21 November, Dienstag

    Zeit Temperatur Niederschläge Wind Luftdruck Luftfeuchtigkeit
    00:00 +7°C° 0 mm 2 m/S 658 mmHg 15%
    01:00 +7°C° 0 mm 2 m/S 658 mmHg 15%
    02:00 +7°C° 0 mm 2 m/S 658 mmHg 14%
    03:00 +6°C° 0 mm 2 m/S 657 mmHg 14%
    04:00 +6°C° 0 mm 2 m/S 657 mmHg 14%
    05:00 +6°C° 0 mm 2 m/S 657 mmHg 14%
    06:00 +7°C° 0 mm 2 m/S 657 mmHg 14%
    07:00 +7°C° 0 mm 2 m/S 658 mmHg 14%
    08:00 +8°C° 0 mm 2 m/S 658 mmHg 14%
    09:00 +10°C° 0 mm 2 m/S 658 mmHg 12%
    10:00 +14°C° 0 mm 2 m/S 659 mmHg 10%
    11:00 +16°C° 0 mm 1 m/S 659 mmHg 8%
    12:00 +16°C° 0 mm 1 m/S 659 mmHg 8%
    13:00 +17°C° 0 mm 2 m/S 659 mmHg 8%
    14:00 +17°C° 0 mm 2 m/S 658 mmHg 8%
    15:00 +15°C° 0 mm 1 m/S 658 mmHg 12%
    16:00 +13°C° 0 mm 1 m/S 657 mmHg 16%
    17:00 +11°C° 0 mm 1 m/S 656 mmHg 19%
    18:00 +11°C° 0 mm 1 m/S 656 mmHg 18%
    19:00 +10°C° 0 mm 1 m/S 657 mmHg 17%
    20:00 +9°C° 0 mm 2 m/S 657 mmHg 16%
    21:00 +8°C° 0 mm 2 m/S 657 mmHg 16%
    22:00 +8°C° 0 mm 2 m/S 657 mmHg 16%
    23:00 +8°C° 0 mm 2 m/S 657 mmHg 15%

    22 November, Mittwoch

    Zeit Temperatur Niederschläge Wind Luftdruck Luftfeuchtigkeit
    00:00 +7°C° 0 mm 2 m/S 656 mmHg 15%
    01:00 +7°C° 0 mm 2 m/S 656 mmHg 15%
    02:00 +7°C° 0 mm 2 m/S 656 mmHg 15%
    03:00 +7°C° 0 mm 2 m/S 656 mmHg 14%
    04:00 +6°C° 0 mm 2 m/S 656 mmHg 14%
    05:00 +6°C° 0 mm 2 m/S 656 mmHg 14%
    06:00 +7°C° 0 mm 2 m/S 656 mmHg 14%
    07:00 +8°C° 0 mm 2 m/S 657 mmHg 14%
    08:00 +8°C° 0 mm 2 m/S 657 mmHg 13%
    09:00 +12°C° 0 mm 2 m/S 658 mmHg 12%
    10:00 +14°C° 0 mm 1 m/S 658 mmHg 10%
    11:00 +16°C° 0 mm 1 m/S 659 mmHg 8%
    12:00 +18°C° 0 mm 1 m/S 659 mmHg 8%
    13:00 +17°C° 0 mm 2 m/S 658 mmHg 8%
    14:00 +18°C° 0 mm 2 m/S 658 mmHg 8%
    15:00 +16°C° 0 mm 1 m/S 657 mmHg 12%
    16:00 +14°C° 0 mm 1 m/S 657 mmHg 16%
    17:00 +11°C° 0 mm 1 m/S 656 mmHg 19%
    18:00 +11°C° 0 mm 1 m/S 656 mmHg 18%
    19:00 +11°C° 0 mm 1 m/S 656 mmHg 17%
    20:00 +9°C° 0 mm 2 m/S 657 mmHg 16%
    21:00 +9°C° 0 mm 2 m/S 657 mmHg 15%
    22:00 +8°C° 0 mm 2 m/S 657 mmHg 15%
    23:00 +8°C° 0 mm 2 m/S 656 mmHg 15%

    23 November, Donnerstag

    Zeit Temperatur Niederschläge Wind Luftdruck Luftfeuchtigkeit
    00:00 +8°C° 0 mm 2 m/S 656 mmHg 15%
    01:00 +8°C° 0 mm 2 m/S 656 mmHg 14%
    02:00 +7°C° 0 mm 2 m/S 656 mmHg 14%
    03:00 +7°C° 0 mm 2 m/S 655 mmHg 14%
    04:00 +7°C° 0 mm 2 m/S 655 mmHg 13%
    05:00 +7°C° 0 mm 2 m/S 655 mmHg 13%
    06:00 +7°C° 0 mm 2 m/S 655 mmHg 13%
    07:00 +8°C° 0 mm 2 m/S 656 mmHg 13%
    08:00 +9°C° 0 mm 2 m/S 656 mmHg 13%
    09:00 +12°C° 0 mm 2 m/S 657 mmHg 11%
    10:00 +14°C° 0 mm 1 m/S 658 mmHg 9%
    11:00 +18°C° 0 mm 1 m/S 658 mmHg 8%
    12:00 +18°C° 0 mm 1 m/S 658 mmHg 8%
    13:00 +17°C° 0 mm 2 m/S 658 mmHg 8%
    14:00 +18°C° 0 mm 2 m/S 657 mmHg 9%
    15:00 +16°C° 0 mm 1 m/S 657 mmHg 12%
    16:00 +14°C° 0 mm 1 m/S 656 mmHg 16%
    17:00 +12°C° 0 mm 1 m/S 656 mmHg 19%
    18:00 +11°C° 0 mm 1 m/S 656 mmHg 18%
    19:00 +11°C° 0 mm 1 m/S 656 mmHg 17%
    20:00 +10°C° 0 mm 1 m/S 657 mmHg 16%
    21:00 +10°C° 0 mm 1 m/S 657 mmHg 16%
    22:00 +9°C° 0 mm 2 m/S 657 mmHg 16%
    23:00 +8°C° 0 mm 2 m/S 657 mmHg 16%
    Mehr zeigen